KINEIS-1C

Last updated on Fri Sep 11 2026 00:02:53 GMT+0000 (Coordinated Universal Time)

1 60081U 24114C 26253.50342530 .00000531 00000+0 75793-4 0 9990 2 60081 97.9831 277.1479 0000496 96.3664 263.7605 14.80738771120002
UTC large
Height (km)
Speed (km/s)
/
Latitude / Longitude
Inclination (degrees)
Orbital Period (minutes)
Azimuth
Elevation
Range (km)
Doppler Factor

Next 0 passes for location: London (51.5072 / 0.1276)

No passes found over London.
KINEIS-1C